FW7315 Weather Reports


time (UTC)temp
C
wind
direction
speed
KPH
gust
KPH
rain 1hr
cm
rain 24hr
cm
rain mn
cm
humidity
%
barometer
mb
20260906080032 27 315 0.0 3.2 0.00 0.00 0.00 69 1017.8
20260906074528 27 268 0.0 4.8 0.00 0.00 0.00 69 1017.7
20260906073044 26 309 0.0 3.2 0.00 0.00 0.00 73 1017.5
20260906071524 26 360 0.0 1.6 0.00 0.00 0.00 68 1017.4
20260906070034 26 304 0.0 3.2 0.00 0.00 0.00 69 1017.3
20260906064521 26 277 0.0 3.2 0.00 0.00 0.00 68 1017.2
20260906063021 27 171 0.0 4.8 0.00 0.00 0.00 62 1017.1
20260906061516 26 167 0.0 4.8 0.00 0.00 0.00 63 1017.0
20260906060014 25 170 0.0 4.8 0.00 0.00 0.00 66 1016.9
20260906054517 23 263 0.0 0.0 0.00 0.00 0.00 73 1016.8
20260906053012 23 259 0.0 0.0 0.00 0.00 0.00 76 1016.7
20260906051518 23 259 0.0 0.0 0.00 0.00 0.00 77 1016.6
20260906050008 23 259 0.0 0.0 0.00 0.00 0.00 75 1016.4
20260906044509 23 277 0.0 3.2 0.00 0.00 0.00 74 1016.3
20260906043007 23 290 0.0 1.6 0.00 0.00 0.00 74 1016.2
20260906041503 23 294 0.0 3.2 0.00 0.00 0.00 70 1016.1
20260906040116 23 277 1.6 6.4 0.00 0.00 0.00 68 1015.9
20260906034659 22 303 0.0 4.8 0.00 0.00 0.00 68 1015.8
20260906033057 22 309 1.6 6.4 0.00 0.00 0.00 68 1015.5
20260906031554 22 274 0.0 3.2 0.00 0.00 0.00 66 1015.6
20260906030048 25 292 3.2 11.3 0.00 0.00 0.00 60 1015.4
20260906024546 25 284 0.0 3.2 0.00 0.00 0.00 58 1015.2
20260906023101 25 296 0.0 3.2 0.00 0.00 0.00 58 1015.2
20260906021543 25 277 1.6 4.8 0.00 0.00 0.00 57 1015.1
20260906020041 25 291 0.0 3.2 0.00 0.00 0.00 57 1015.1
20260906014553 25 278 1.6 3.2 0.00 0.00 0.00 57 1015.0
20260906013039 26 271 0.0 1.6 0.00 0.00 0.00 56 1014.9
20260906011549 26 288 0.0 4.8 0.00 0.00 0.00 57 1014.9
20260906010037 26 275 0.0 3.2 0.00 0.00 0.00 56 1014.8
20260906004538 26 305 0.0 3.2 0.00 0.00 0.00 55 1014.8
20260906003034 26 279 0.0 3.2 0.00 0.00 0.00 55 1014.8
20260906001533 26 277 0.0 3.2 0.00 0.00 0.00 56 1014.8
20260906000032 26 292 0.0 1.6 0.00 0.00 0.00 56 1014.9
20260905234536 26 248 0.0 3.2 0.00 0.00 0.00 55 1014.8
20260905233031 26 281 0.0 3.2 0.00 0.00 0.00 55 1014.8
20260905231530 26 296 0.0 1.6 0.00 0.00 0.00 55 1014.8
20260905230030 26 277 0.0 0.0 0.00 0.00 0.00 55 1014.9
20260905224535 26 296 0.0 3.2 0.00 0.00 0.00 55 1014.8
20260905223033 26 292 0.0 3.2 0.00 0.00 0.00 55 1014.7
20260905221526 26 292 0.0 1.6 0.00 0.00 0.00 54 1014.6
20260905220022 26 311 0.0 1.6 0.00 0.00 0.00 55 1014.4
20260905214521 27 288 0.0 1.6 0.00 0.00 0.00 53 1014.4
20260905213019 27 287 0.0 3.2 0.00 0.00 0.00 53 1014.4
20260905211521 27 290 0.0 3.2 0.00 0.00 0.00 52 1014.2
20260905210017 27 290 0.0 3.2 0.00 0.00 0.00 50 1014.2
20260905204517 27 289 0.0 3.2 0.00 0.00 0.00 48 1014.3
20260905203017 27 288 0.0 1.6 0.00 0.00 0.00 48 1014.2
20260905201518 27 119 0.0 1.6 0.00 0.00 0.00 49 1014.2
20260905200014 27 119 0.0 1.6 0.00 0.00 0.00 49 1014.1
20260905194513 27 105 0.0 1.6 0.00 0.00 0.00 48 1014.1
20260905193012 27 99 0.0 3.2 0.00 0.00 0.00 48 1014.1
20260905191512 27 131 0.0 4.8 0.00 0.00 0.00 48 1013.9
20260905190030 27 86 0.0 6.4 0.00 0.00 0.00 48 1013.8
20260905184510 27 84 3.2 6.4 0.00 0.00 0.00 48 1013.6
20260905183014 27 92 3.2 9.7 0.00 0.00 0.00 48 1013.4
20260905181512 27 78 3.2 6.4 0.00 0.00 0.00 47 1013.3
20260905180008 27 122 3.2 6.4 0.00 0.00 0.00 46 1013.3
20260905174506 27 90 4.8 6.4 0.00 0.00 0.00 46 1013.1
20260905173006 27 125 3.2 9.7 0.00 0.00 0.00 46 1013.0
20260905171505 28 96 4.8 12.9 0.00 0.00 0.00 45 1012.9
20260905170004 28 75 4.8 9.7 0.00 0.00 0.00 45 1012.8
20260905164505 28 78 6.4 12.9 0.00 0.00 0.00 45 1012.7
20260905163008 29 70 8.0 14.5 0.00 0.00 0.00 44 1012.7
20260905161503 30 74 8.0 12.9 0.00 0.00 0.00 44 1012.5
20260905160004 30 81 8.0 17.7 0.00 0.00 0.00 44 1012.5
20260905154502 30 75 8.0 14.5 0.00 0.00 0.00 44 1012.3
20260905153000 31 75 9.7 16.1 0.00 0.00 0.00 44 1012.3
20260905151559 31 59 4.8 14.5 0.00 0.00 0.00 42 1012.4
20260905150059 32 80 3.2 12.9 0.00 0.00 0.00 41 1012.5
20260905144559 32 71 4.8 12.9 0.00 0.00 0.00 41 1012.4
20260905143057 32 115 0.0 6.4 0.00 0.00 0.00 41 1012.5
20260905141558 32 61 4.8 9.7 0.00 0.00 0.00 41 1012.6
20260905140105 32 86 3.2 16.1 0.00 0.00 0.00 42 1012.7
20260905134555 32 82 6.4 14.5 0.00 0.00 0.00 39 1012.7
20260905133058 32 132 4.8 16.1 0.00 0.00 0.00 40 1012.8
20260905131605 33 97 4.8 14.5 0.00 0.00 0.00 39 1012.8
20260905130052 33 96 1.6 6.4 0.00 0.00 0.00 38 1013.0
20260905124552 32 73 3.2 16.1 0.00 0.00 0.00 39 1012.9
20260905123050 32 132 4.8 17.7 0.00 0.00 0.00 40 1013.1
20260905121552 34 88 1.6 8.0 0.00 0.00 0.00 33 1013.3
20260905120046 33 261 3.2 12.9 0.00 0.00 0.00 33 1013.2
20260905114546 33 14 1.6 12.9 0.00 0.00 0.00 34 1013.3
20260905113045 33 331 1.6 12.9 0.00 0.00 0.00 33 1013.3
20260905111602 33 323 4.8 12.9 0.00 0.00 0.00 33 1013.4
20260905110041 32 306 3.2 12.9 0.00 0.00 0.00 34 1013.4
20260905104541 32 355 4.8 14.5 0.00 0.00 0.00 34 1013.4
20260905103041 32 342 8.0 16.1 0.00 0.00 0.00 34 1013.4
20260905101547 32 348 1.6 8.0 0.00 0.00 0.00 34 1013.7
20260905100039 32 308 4.8 14.5 0.00 0.00 0.00 33 1013.8
20260905094535 32 313 3.2 11.3 0.00 0.00 0.00 35 1013.7
20260905093036 32 11 1.6 8.0 0.00 0.00 0.00 35 1013.6
20260905091530 31 16 1.6 8.0 0.00 0.00 0.00 35 1013.6
20260905090029 31 338 1.6 6.4 0.00 0.00 0.00 34 1013.5
20260905084530 31 288 1.6 6.4 0.00 0.00 0.00 35 1013.4
20260905083026 30 279 1.6 6.4 0.00 0.00 0.00 34 1013.3
20260905081526 30 315 1.6 6.4 0.00 0.00 0.00 33 1013.3